| time (UTC) | temp F | wind direction | speed knots | gust knots | rain 1hr in | rain 24hr in | rain mn in | humidity % | barometer mb |
| 20260510144138 | 83 | 239 | 10.4 | 18.2 | 0.00 | 0.00 | 0.00 | 25 | 1009.2 |
| 20260510143037 | 80 | 234 | 9.6 | 13.9 | 0.00 | 0.00 | 0.00 | 30 | 1009.2 |
| 20260510141937 | 78 | 242 | 8.7 | 13.0 | 0.00 | 0.00 | 0.00 | 35 | 1009.1 |
| 20260510140838 | 76 | 227 | 7.8 | 10.4 | 0.00 | 0.00 | 0.00 | 37 | 1009.1 |
| 20260510135736 | 76 | 232 | 7.8 | 10.4 | 0.00 | 0.00 | 0.00 | 37 | 1009.1 |
| 20260510134635 | 76 | 196 | 7.8 | 11.3 | 0.00 | 0.00 | 0.00 | 37 | 1009.0 |
| 20260510133534 | 74 | 235 | 7.0 | 9.6 | 0.00 | 0.00 | 0.00 | 39 | 1008.9 |
| 20260510132434 | 73 | 231 | 6.1 | 11.3 | 0.00 | 0.00 | 0.00 | 41 | 1008.7 |
| 20260510131333 | 72 | 209 | 6.1 | 9.6 | 0.00 | 0.00 | 0.00 | 44 | 1008.7 |
| 20260510130234 | 71 | 221 | 7.0 | 10.4 | 0.00 | 0.00 | 0.00 | 46 | 1008.4 |
| 20260510125132 | 71 | 214 | 7.8 | 10.4 | 0.00 | 0.00 | 0.00 | 46 | 1008.3 |
| 20260510124031 | 71 | 208 | 7.0 | 8.7 | 0.00 | 0.00 | 0.00 | 46 | 1008.2 |
| 20260510122931 | 71 | 206 | 8.7 | 12.2 | 0.00 | 0.00 | 0.00 | 46 | 1008.1 |
| 20260510121830 | 72 | 202 | 10.4 | 13.0 | 0.00 | 0.00 | 0.00 | 45 | 1007.9 |
| 20260510120729 | 72 | 210 | 9.6 | 13.9 | 0.00 | 0.00 | 0.00 | 46 | 1007.8 |
| 20260510115629 | 71 | 199 | 8.7 | 11.3 | 0.00 | 0.00 | 0.00 | 48 | 1007.9 |
| 20260510114528 | 71 | 193 | 9.6 | 13.0 | 0.00 | 0.00 | 0.00 | 48 | 1007.6 |
| 20260510113428 | 71 | 194 | 7.8 | 10.4 | 0.00 | 0.00 | 0.00 | 48 | 1007.7 |
| 20260510112327 | 72 | 204 | 10.4 | 15.6 | 0.00 | 0.00 | 0.00 | 47 | 1007.6 |
| 20260510111226 | 72 | 206 | 12.2 | 17.4 | 0.00 | 0.00 | 0.00 | 46 | 1007.5 |
| 20260510110126 | 72 | 181 | 7.8 | 19.1 | 0.00 | 0.00 | 0.00 | 46 | 1007.3 |
| 20260510105229 | 72 | 175 | 7.0 | 15.6 | 0.00 | 0.00 | 0.00 | 47 | 1007.1 |
| 20260510105025 | 72 | 175 | 7.0 | 15.6 | 0.00 | 0.00 | 0.00 | 47 | 1007.1 |
| 20260510103924 | 72 | 168 | 8.7 | 16.5 | 0.00 | 0.00 | 0.00 | 47 | 1007.1 |
| 20260510102824 | 72 | 167 | 8.7 | 14.8 | 0.00 | 0.00 | 0.00 | 47 | 1007.1 |
| 20260510101723 | 72 | 173 | 7.8 | 15.6 | 0.00 | 0.00 | 0.00 | 48 | 1007.2 |
| 20260510100623 | 71 | 170 | 10.4 | 17.4 | 0.00 | 0.00 | 0.00 | 49 | 1007.2 |
| 20260510095522 | 70 | 192 | 10.4 | 13.9 | 0.00 | 0.00 | 0.00 | 52 | 1007.2 |
| 20260510094422 | 71 | 183 | 11.3 | 19.1 | 0.00 | 0.00 | 0.00 | 50 | 1007.1 |
| 20260510093321 | 71 | 171 | 10.4 | 15.6 | 0.00 | 0.00 | 0.00 | 51 | 1007.1 |
| 20260510092220 | 71 | 193 | 7.0 | 13.9 | 0.00 | 0.00 | 0.00 | 52 | 1007.3 |
| 20260510091120 | 71 | 167 | 6.1 | 10.4 | 0.00 | 0.00 | 0.00 | 53 | 1007.2 |
| 20260510090019 | 71 | 156 | 6.1 | 7.8 | 0.00 | 0.00 | 0.00 | 53 | 1007.3 |
| 20260510084918 | 72 | 149 | 5.2 | 8.7 | 0.00 | 0.00 | 0.00 | 53 | 1007.3 |
| 20260510083818 | 72 | 156 | 5.2 | 9.6 | 0.00 | 0.00 | 0.00 | 53 | 1007.3 |
| 20260510082717 | 71 | 160 | 5.2 | 7.8 | 0.00 | 0.00 | 0.00 | 53 | 1007.4 |
| 20260510081617 | 71 | 156 | 5.2 | 7.0 | 0.00 | 0.00 | 0.00 | 55 | 1007.5 |
| 20260510080516 | 71 | 149 | 6.1 | 7.8 | 0.00 | 0.00 | 0.00 | 56 | 1007.6 |
| 20260510075415 | 71 | 150 | 6.1 | 9.6 | 0.00 | 0.00 | 0.00 | 57 | 1007.7 |
| 20260510074315 | 72 | 162 | 7.0 | 13.9 | 0.00 | 0.00 | 0.00 | 56 | 1007.7 |
| 20260510073214 | 72 | 135 | 7.0 | 11.3 | 0.00 | 0.00 | 0.00 | 55 | 1008.0 |
| 20260510072113 | 72 | 57 | 7.0 | 12.2 | 0.00 | 0.00 | 0.00 | 53 | 1008.1 |
| 20260510071013 | 72 | 155 | 7.0 | 13.9 | 0.00 | 0.00 | 0.00 | 53 | 1008.3 |
| 20260510065912 | 72 | 146 | 7.8 | 13.0 | 0.00 | 0.00 | 0.00 | 52 | 1008.4 |
| 20260510064812 | 73 | 168 | 7.8 | 18.2 | 0.00 | 0.00 | 0.00 | 52 | 1008.5 |
| 20260510063711 | 73 | 147 | 7.8 | 15.6 | 0.00 | 0.00 | 0.00 | 52 | 1008.7 |
| 20260510062610 | 73 | 152 | 7.0 | 13.0 | 0.00 | 0.00 | 0.00 | 51 | 1008.6 |
| 20260510061510 | 73 | 161 | 7.0 | 13.9 | 0.00 | 0.00 | 0.00 | 50 | 1008.8 |
| 20260510060409 | 72 | 164 | 7.0 | 13.9 | 0.00 | 0.00 | 0.00 | 49 | 1008.8 |
| 20260510055308 | 73 | 158 | 6.1 | 10.4 | 0.00 | 0.00 | 0.00 | 46 | 1008.9 |
| 20260510054208 | 73 | 144 | 6.1 | 12.2 | 0.00 | 0.00 | 0.00 | 44 | 1008.8 |
| 20260510053108 | 74 | 136 | 6.1 | 12.2 | 0.00 | 0.00 | 0.00 | 42 | 1009.0 |
| 20260510052007 | 74 | 133 | 5.2 | 14.8 | 0.00 | 0.00 | 0.00 | 40 | 1009.0 |
| 20260510050906 | 74 | 163 | 6.1 | 9.6 | 0.00 | 0.00 | 0.00 | 40 | 1009.1 |
| 20260510045805 | 74 | 152 | 5.2 | 11.3 | 0.00 | 0.00 | 0.00 | 37 | 1009.3 |
| 20260510044705 | 74 | 160 | 5.2 | 9.6 | 0.00 | 0.00 | 0.00 | 34 | 1009.4 |
| 20260510043604 | 75 | 152 | 5.2 | 9.6 | 0.00 | 0.00 | 0.00 | 32 | 1009.4 |
| 20260510041403 | 74 | 152 | 6.1 | 9.6 | 0.00 | 0.00 | 0.00 | 30 | 1009.4 |
| 20260510040302 | 75 | 147 | 7.0 | 9.6 | 0.00 | 0.00 | 0.00 | 28 | 1009.5 |
| 20260510035202 | 75 | 146 | 5.2 | 10.4 | 0.00 | 0.00 | 0.00 | 27 | 1009.3 |
| 20260510034101 | 75 | 147 | 6.1 | 13.9 | 0.00 | 0.00 | 0.00 | 26 | 1009.4 |
| 20260510033001 | 76 | 142 | 6.1 | 9.6 | 0.00 | 0.00 | 0.00 | 26 | 1009.3 |
| 20260510031900 | 76 | 145 | 7.0 | 10.4 | 0.00 | 0.00 | 0.00 | 25 | 1009.2 |
| 20260510030759 | 76 | 145 | 7.0 | 10.4 | 0.00 | 0.00 | 0.00 | 25 | 1009.0 |
| 20260510025659 | 77 | 145 | 6.1 | 10.4 | 0.00 | 0.00 | 0.00 | 25 | 1008.9 |
| 20260510024558 | 77 | 149 | 6.1 | 10.4 | 0.00 | 0.00 | 0.00 | 24 | 1008.7 |
| 20260510023457 | 77 | 131 | 7.0 | 12.2 | 0.00 | 0.00 | 0.00 | 23 | 1008.5 |
| 20260510022357 | 78 | 124 | 7.0 | 11.3 | 0.00 | 0.00 | 0.00 | 23 | 1008.4 |
| 20260510021256 | 78 | 137 | 5.2 | 9.6 | 0.00 | 0.00 | 0.00 | 23 | 1008.3 |
| 20260510020156 | 79 | 122 | 4.3 | 7.0 | 0.00 | 0.00 | 0.00 | 23 | 1008.3 |
| 20260510015055 | 80 | 119 | 5.2 | 7.0 | 0.00 | 0.00 | 0.00 | 22 | 1008.2 |
| 20260510013954 | 81 | 130 | 5.2 | 9.6 | 0.00 | 0.00 | 0.00 | 21 | 1008.2 |
| 20260510012854 | 82 | 119 | 5.2 | 7.8 | 0.00 | 0.00 | 0.00 | 19 | 1008.1 |
| 20260510011753 | 83 | 127 | 5.2 | 7.8 | 0.00 | 0.00 | 0.00 | 19 | 1008.0 |
| 20260510010653 | 85 | 112 | 7.0 | 9.6 | 0.00 | 0.00 | 0.00 | 18 | 1007.8 |
| 20260510005552 | 86 | 112 | 6.1 | 9.6 | 0.00 | 0.00 | 0.00 | 16 | 1007.7 |
| 20260510004451 | 86 | 122 | 7.8 | 11.3 | 0.00 | 0.00 | 0.00 | 15 | 1007.8 |
| 20260510003351 | 87 | 103 | 7.8 | 9.6 | 0.00 | 0.00 | 0.00 | 16 | 1007.7 |
| 20260510002250 | 87 | 118 | 8.7 | 15.6 | 0.00 | 0.00 | 0.00 | 15 | 1007.7 |
| 20260510001149 | 88 | 108 | 7.8 | 12.2 | 0.00 | 0.00 | 0.00 | 14 | 1007.9 |
| 20260510000049 | 88 | 112 | 8.7 | 13.0 | 0.00 | 0.00 | 0.00 | 13 | 1007.9 |
| 20260509234948 | 89 | 95 | 7.0 | 9.6 | 0.00 | 0.00 | 0.00 | 14 | 1008.0 |
| 20260509233848 | 89 | 116 | 5.2 | 9.6 | 0.00 | 0.00 | 0.00 | 14 | 1008.1 |
| 20260509232747 | 90 | 117 | 5.2 | 7.8 | 0.00 | 0.00 | 0.00 | 13 | 1008.3 |
| 20260509231646 | 90 | 175 | 2.6 | 4.3 | 0.00 | 0.00 | 0.00 | 12 | 1008.4 |
| 20260509230546 | 90 | 82 | 6.1 | 11.3 | 0.00 | 0.00 | 0.00 | 12 | 1008.5 |
| 20260509225445 | 90 | 79 | 9.6 | 12.2 | 0.00 | 0.00 | 0.00 | 12 | 1008.5 |
| 20260509224344 | 91 | 88 | 8.7 | 13.0 | 0.00 | 0.00 | 0.00 | 10 | 1008.4 |
| 20260509223244 | 91 | 90 | 7.0 | 12.2 | 0.00 | 0.00 | 0.00 | 11 | 1008.5 |
| 20260509222143 | 90 | 103 | 5.2 | 9.6 | 0.00 | 0.00 | 0.00 | 11 | 1008.5 |
| 20260509221043 | 91 | 94 | 5.2 | 10.4 | 0.00 | 0.00 | 0.00 | 11 | 1008.5 |
| 20260509215942 | 90 | 111 | 5.2 | 7.8 | 0.00 | 0.00 | 0.00 | 12 | 1008.7 |
| 20260509214841 | 91 | 110 | 3.5 | 7.0 | 0.00 | 0.00 | 0.00 | 12 | 1008.8 |
| 20260509213741 | 90 | 87 | 7.8 | 11.3 | 0.00 | 0.00 | 0.00 | 12 | 1009.0 |
| 20260509212640 | 90 | 143 | 3.5 | 4.3 | 0.00 | 0.00 | 0.00 | 11 | 1008.9 |
| 20260509211540 | 91 | 118 | 3.5 | 10.4 | 0.00 | 0.00 | 0.00 | 11 | 1009.2 |
| 20260509210439 | 90 | 191 | 6.1 | 10.4 | 0.00 | 0.00 | 0.00 | 12 | 1009.5 |
| 20260509205338 | 91 | 195 | 4.3 | 9.6 | 0.00 | 0.00 | 0.00 | 11 | 1009.5 |
| 20260509204238 | 90 | 115 | 3.5 | 3.5 | 0.00 | 0.00 | 0.00 | 12 | 1009.8 |
| 20260509203137 | 90 | 268 | 4.3 | 10.4 | 0.00 | 0.00 | 0.00 | 12 | 1009.8 |
| 20260509202036 | 90 | 212 | 4.3 | 11.3 | 0.00 | 0.00 | 0.00 | 13 | 1010.1 |
| 20260509200936 | 89 | 186 | 5.2 | 7.8 | 0.00 | 0.00 | 0.00 | 14 | 1010.2 |
| 20260509195835 | 89 | 157 | 5.2 | 18.2 | 0.00 | 0.00 | 0.00 | 12 | 1010.3 |
| 20260509194735 | 91 | 62 | 0.9 | 4.3 | 0.00 | 0.00 | 0.00 | 12 | 1010.5 |
| 20260509193634 | 88 | 160 | 1.7 | 8.7 | 0.00 | 0.00 | 0.00 | 13 | 1010.4 |
| 20260509192533 | 89 | 113 | 4.3 | 7.0 | 0.00 | 0.00 | 0.00 | 12 | 1010.7 |
| 20260509191433 | 89 | 215 | 2.6 | 6.1 | 0.00 | 0.00 | 0.00 | 13 | 1010.7 |
| 20260509190332 | 89 | 93 | 2.6 | 5.2 | 0.00 | 0.00 | 0.00 | 14 | 1011.0 |
| 20260509185231 | 86 | 244 | 7.0 | 9.6 | 0.00 | 0.00 | 0.00 | 14 | 1011.1 |
| 20260509184131 | 88 | 175 | 1.7 | 5.2 | 0.00 | 0.00 | 0.00 | 14 | 1011.1 |
| 20260509183030 | 88 | 191 | 2.6 | 6.1 | 0.00 | 0.00 | 0.00 | 14 | 1011.2 |
| 20260509181930 | 90 | 177 | 0.9 | 4.3 | 0.00 | 0.00 | 0.00 | 13 | 1011.5 |
| 20260509180829 | 87 | 38 | 2.6 | 5.2 | 0.00 | 0.00 | 0.00 | 14 | 1011.8 |
| 20260509175728 | 86 | 188 | 3.5 | 7.0 | 0.00 | 0.00 | 0.00 | 15 | 1011.9 |
| 20260509174628 | 86 | 161 | 2.6 | 7.0 | 0.00 | 0.00 | 0.00 | 17 | 1012.0 |
| 20260509173527 | 87 | 89 | 2.6 | 7.0 | 0.00 | 0.00 | 0.00 | 17 | 1012.1 |
| 20260509172426 | 84 | 182 | 1.7 | 7.8 | 0.00 | 0.00 | 0.00 | 17 | 1012.0 |
| 20260509171326 | 85 | 147 | 1.7 | 7.8 | 0.00 | 0.00 | 0.00 | 17 | 1012.0 |
| 20260509170225 | 84 | 282 | 4.3 | 8.7 | 0.00 | 0.00 | 0.00 | 17 | 1012.2 |
| 20260509165125 | 84 | 249 | 2.6 | 5.2 | 0.00 | 0.00 | 0.00 | 18 | 1012.2 |
| 20260509164024 | 82 | 228 | 4.3 | 7.0 | 0.00 | 0.00 | 0.00 | 20 | 1012.3 |
| 20260509162923 | 82 | 213 | 2.6 | 6.1 | 0.00 | 0.00 | 0.00 | 19 | 1012.5 |
| 20260509161823 | 82 | 137 | 1.7 | 4.3 | 0.00 | 0.00 | 0.00 | 20 | 1012.5 |
| 20260509160722 | 81 | 94 | 1.7 | 3.5 | 0.00 | 0.00 | 0.00 | 23 | 1012.5 |
| 20260509155622 | 80 | 208 | 1.7 | 4.3 | 0.00 | 0.00 | 0.00 | 23 | 1012.5 |
| 20260509154521 | 79 | 231 | 2.6 | 5.2 | 0.00 | 0.00 | 0.00 | 26 | 1012.5 |
| 20260509153420 | 78 | 189 | 1.7 | 6.1 | 0.00 | 0.00 | 0.00 | 27 | 1012.4 |
| 20260509152320 | 78 | 179 | 2.6 | 6.1 | 0.00 | 0.00 | 0.00 | 26 | 1012.5 |
| 20260509151219 | 77 | 157 | 2.6 | 5.2 | 0.00 | 0.00 | 0.00 | 26 | 1012.4 |
| 20260509150118 | 76 | 181 | 3.5 | 6.1 | 0.00 | 0.00 | 0.00 | 28 | 1012.6 |
| 20260509145018 | 74 | 192 | 3.5 | 7.0 | 0.00 | 0.00 | 0.00 | 29 | 1012.6 |